Regional Weather Roundup
Issued by NWS

Home | Current Version | Previous Version | Graphics & Text | Print | Product List | Glossary On
Versions: 1 2 3 4 5 6 7 8 9 10 11 12 13 14 15 16 17 18 19 20 21 22 23 24 25 26 27 28 29 30 31 32 33 34 35 36 37 38 39 40 41 42 43 44 45 46 47 48 49 50
984
ASUS45 KPSR 221710
RWRAZ

ARIZONA HOURLY REGIONAL WEATHER ROUNDUP
NATIONAL WEATHER SERVICE PHOENIX AZ
1000 AM MST WED FEB 22 2017

NOTE: FAIR INDICATES FEW OR NO CLOUDS BELOW 12,000 FEET WITH NO
SIGNIFICANT WEATHER AND/OR OBSTRUCTIONS TO VISIBILITY.

AZZ001>003-036-221800-
NORTHWEST ARIZONA

CITY           SKY/WX    TMP DP  RH WIND       PRES   REMARKS
BULLHEAD CITY  SUNNY     59  52  77 SW7       29.98F
KINGMAN        SUNNY     57  38  48 N5        30.01F
$$

AZZ004>008-015-016-018-221800-
NORTH CENTRAL ARIZONA

CITY           SKY/WX    TMP DP  RH WIND       PRES   REMARKS
GRAND CANYON   PTSUNNY   43  39  86 S13       30.09F
WILLIAMS       CLOUDY    46  30  53 S15       30.12S
PRESCOTT       PTSUNNY   53  45  74 SE8       30.10F
FLAGSTAFF      CLOUDY    44  39  82 SW18G24   30.13F
PAYSON         PTSUNNY   54  43  66 VRB3      30.17S
PAGE           MOSUNNY   53  36  52 CALM      29.96F
$$

AZZ009>014-017-221800-
NORTHEAST ARIZONA

CITY           SKY/WX    TMP DP  RH WIND       PRES   REMARKS
WINSLOW        PTSUNNY   56  41  57 E7        30.08F
SAINT JOHNS    PTSUNNY   53  36  52 CALM      30.12F
SHOW LOW       PTSUNNY   50  32  50 S16       30.17S
$$

AZZ023-221800-
GREATER PHOENIX AREA

CITY           SKY/WX    TMP DP  RH WIND       PRES   REMARKS
PHOENIX        PTSUNNY   64  52  64 E6        30.03S
BUCKEYE        MOSUNNY   63  63 100 E6        30.04F
GLENDALE       PTSUNNY   63  57  82 CALM      30.06S
LUKE AFB       MOSUNNY   64  54  69 CALM      30.03F
DEER VALLEY    MOSUNNY   64  52  64 CALM      30.04S
SCOTTSDALE     MOSUNNY   63  51  65 CALM      30.08S
MESA-FALCON    PTSUNNY  N/A N/A N/A VRB5      30.02S
MESA-GATEWAY   MOSUNNY   63  52  67 CALM      30.05S
CHANDLER       SUNNY     61  54  77 CALM      30.05R
$$

AZZ027-028-221800-
SOUTHWEST MARICOPA COUNTY AND PINAL COUNTY

CITY           SKY/WX    TMP DP  RH WIND       PRES   REMARKS
CASA GRANDE    NOT AVBL
GILA BEND      FAIR      68  52  56 CALM      30.02S
$$

AZZ503-504-507>509-221800-
SOUTHEAST ARIZONA

CITY           SKY/WX    TMP DP  RH WIND       PRES   REMARKS
TUCSON         SUNNY     64  42  44 S5        30.08F
DAVIS-MONTHAN  SUNNY     66  43  44 S7        30.07F
RYAN FIELD     SUNNY     63  46  55 E5        30.09R
NOGALES        SUNNY     62  42  47 S3        30.12F
SIERRA VISTA   SUNNY     63  40  42 CALM      30.16S
DOUGLAS        SUNNY     60  37  42 CALM      30.14F
SAFFORD        SUNNY     63  42  46 SE8       30.09S
$$

AZZ020-021-025-026-031-221800-
SOUTHWEST ARIZONA

CITY           SKY/WX    TMP DP  RH WIND       PRES   REMARKS
YUMA           PTSUNNY   71  45  39 NW7       30.00F
$$

CAZ031-033-041-043-047-048-061-221800-
SOUTHERN CALIFORNIA

CITY           SKY/WX    TMP DP  RH WIND       PRES   REMARKS
DOWNTOWN L.A.  SUNNY     59  50  72 CALM      30.14S
L.A. AIRPORT   MOSUNNY   58  50  75 W12       30.15R
SAN DIEGO      PTSUNNY   60  50  69 N12       30.18R
BURBANK        SUNNY     55  46  71 CALM      30.13S
ONTARIO        PTSUNNY   54  49  83 W5        30.13F
RIVERSIDE      PTSUNNY   56  52  86 W5        30.14S
PALM SPRINGS   SUNNY     64  50  60 SE3       30.00F
EL CENTRO NAS  MOSUNNY   71  41  33 W10       30.01S
IMPERIAL       MOSUNNY   71  47  42 W13       29.98F
BLYTHE         PTSUNNY   62  55  77 N5        30.00F
NEEDLES        SUNNY     63  53  70 E3        29.98F
$$

NVZ020-UTZ003-221800-
SOUTHERN NEVADA-UTAH

CITY           SKY/WX    TMP DP  RH WIND       PRES   REMARKS
LAS VEGAS      MOSUNNY   58  29  33 S20G30    29.93R
SALT LAKE CITY CLOUDY    38  34  85 SE8       29.97F WCI  32
$$

NMZ009-TXZ055-221800-
NEW MEXICO-WEST TEXAS

CITY           SKY/WX    TMP DP  RH WIND       PRES   REMARKS
ALBUQUERQUE    CLOUDY    54  35  48 S8        30.12F
EL PASO        MOSUNNY   67  34  29 S10       30.10F
$$


........................KEY........................
SKY/WX - SKY CONDITION/WEATHER
TMP    - TEMPERATURE IN FAHRENHEIT
DP     - DEW POINT IN FAHRENHEIT
RH     - RELATIVE HUMIDITY IN PERCENT
WIND   - DIRECTION AND SPEED IN MILES PER HOUR (MPH)
VRB    - VARIABLE WIND DIRECTION
PRES   - MEAN SEA LEVEL PRESSURE IN INCHES OF MERCURY
         F - FALLING PRESSURE   R - RISING PRESSURE
         S - STEADY PRESSURE
VSB    - VISIBILITY IN MILES
HX     - HEAT INDEX IN FAHRENHEIT
WCI    - WIND CHILL INDEX IN FAHRENHEIT
TC     - TEMPERATURE IN CELSIUS WHICH IS ALSO KNOWN AS
         TEMPERATURE IN CENTIGRADE
AFB    - AIR FORCE BASE
         LUKE AFB IS LUKE AIR FORCE BASE
         DAVIS-MONTHAN IS DAVIS-MONTHAN AIR FORCE BASE
NAS    - NAVAL AIR STATION
         EL CENTRO NAS IS EL CENTRO NAVAL AIR STATION
N/A    - NOT AVAILABLE





USA.gov is the U.S. government's official web portal to all federal, state and local government web resources and services.